• Join FlightAware (Why Join?)
  • Login
  • US Flag GB Flag 
17:23 EST


 

Airport Tracker/Info


-or-


 

Live Flight TrackerFlight Track Log ✈ N960DL ✈ 30-Apr-2013 ✈ KATL - KIAH

Flight Track Log - Related Links

Times and Time Zones

All times are in EDT time to prevent confusion due to time zone crossing. See the N960DL flight status page for this flight to view local times or setup timezone preferences in your user account.

Time Position Orientation Groundspeed Altitude Reporting Facility
EDT Latitude Longitude Course Direction KTS MPH feet Rate Location/Type
22:16 33.6500 -84.4000 234° Southwest 148 170 2,300  Level Atlanta TRACON
22:18 33.8001 -84.3893 270° West  Level FlightAware Approximate
22:18 33.7000 -84.2833 63° Northeast 278 320 6,200  Level Atlanta TRACON
22:19 33.8000 -84.5354 270° West  Level FlightAware Approximate
22:19 33.7833 -84.2833 360° North 289 333 9,600  Level Atlanta TRACON
22:20 33.7458 -84.6611 234° Southwest  Level FlightAware Approximate
22:21 33.6735 -84.7785 234° Southwest  Level FlightAware Approximate
22:21 33.8119 -84.5514 277° West 349 402 14,500  Level Atlanta Center
22:22 33.7572 -84.6683 241° Southwest 377 434 16,700 2,160 Climbing Atlanta Center
22:23 33.6856 -84.7778 232° Southwest 394 453 18,900 2,220 Climbing Atlanta Center
22:24 33.6242 -84.9069 240° Southwest 430 495 21,200 2,160 Climbing Atlanta Center
22:25 33.5817 -85.0261 247° West 437 503 23,300 1,860 Climbing Atlanta Center
22:26 33.5389 -85.1478 247° West 422 486 25,000 900 Climbing Atlanta Center
22:27 33.5042 -85.2719 251° West 397 457 25,200 480 Climbing Atlanta Center
22:28 33.4861 -85.4011 261° West 386 444 26,000 360 Climbing Atlanta Center
22:29 33.4658 -85.5256 259° West 393 452 26,000  Level Atlanta Center
22:30 33.4456 -85.6594 260° West 393 452 26,000  Level Atlanta Center
22:31 33.4228 -85.7836 258° West 412 474 26,000  Level Atlanta Center
22:32 33.3750 -85.9269 248° West 417 480 26,000  Level Atlanta Center
22:33 33.3308 -86.0653 249° West 431 496 26,000  Level Atlanta Center
22:34 33.2847 -86.2008 248° West 437 503 26,000  Level Atlanta Center
22:35 33.2383 -86.3386 248° West 443 510 26,000  Level Atlanta Center
22:36 33.1919 -86.4789 248° West 449 517 26,000  Level Atlanta Center
22:37 33.1494 -86.6142 249° West 449 517 26,000  Level Atlanta Center
22:38 33.1153 -86.7519 254° West 444 511 26,000  Level Atlanta Center
22:39 33.0933 -86.8928 260° West 444 511 26,000  Level Atlanta Center
22:40 33.0753 -87.0383 262° West 444 511 26,000  Level Atlanta Center
22:41 33.0525 -87.1961 260° West 444 511 26,000  Level Atlanta Center
22:42 33.0342 -87.3392 261° West 449 517 26,000  Level Atlanta Center
22:44 33.0042 -87.5828 262° West 441 507 26,000  Level Memphis Center
22:45 32.9844 -87.7297 261° West 446 513 26,000  Level Memphis Center
22:46 32.9644 -87.8786 261° West 451 519 26,000  Level Memphis Center
22:47 32.9439 -88.0056 259° West 446 513 26,000  Level Memphis Center
22:48 32.9069 -88.1450 253° West 446 513 26,000  Level Memphis Center
22:49 32.8631 -88.2747 248° West 446 513 26,000  Level Memphis Center
22:50 32.8153 -88.4019 246° West 434 499 26,000  Level Memphis Center
22:51 32.7711 -88.5289 248° West 424 488 26,000  Level Memphis Center
22:52 32.7250 -88.6558 247° West 419 482 26,000  Level Memphis Center
22:54 32.6342 -88.9142 247° West 419 482 26,000  Level Memphis Center
22:55 32.5856 -89.0408 246° West 424 488 26,000  Level Memphis Center
22:56 32.5389 -89.1744 248° West 424 488 26,000  Level Memphis Center
22:57 32.4900 -89.3033 246° West 430 495 26,000  Level Memphis Center
22:58 32.4408 -89.4367 246° West 435 501 26,000  Level Memphis Center
22:59 32.3917 -89.5675 246° West 440 506 26,000  Level Memphis Center
23:00 32.3403 -89.7008 246° West 440 506 26,000 240 Level Memphis Center
23:01 32.2889 -89.8339 245° Southwest 440 506 26,500 1,560 Climbing Memphis Center
23:02 32.2433 -89.9619 247° West 440 506 29,200 1,740 Climbing Memphis Center
23:03 32.1956 -90.0847 245° Southwest 424 488 30,000 360 Climbing Memphis Center
23:04 32.1500 -90.2053 246° West 414 476 30,000  Level Memphis Center
23:05 32.1019 -90.3303 246° West 414 476 30,000  Level Memphis Center
23:06 32.0561 -90.4553 247° West 419 482 30,000  Level Memphis Center
23:08 31.9706 -90.6828 246° West 411 473 30,000 420 Level Houston Center
23:09 31.9247 -90.8019 246° West 415 478 31,300 1,620 Climbing Houston Center
23:10 31.8697 -90.9472 246° West 406 467 33,400 1,320 Climbing Houston Center
23:11 31.8239 -91.0656 246° West 399 459 34,000 240 Climbing Houston Center
23:12 31.7769 -91.1839 245° Southwest 399 459 34,000  Level Houston Center
23:13 31.7303 -91.3036 245° Southwest 402 463 34,000  Level Houston Center
23:14 31.6850 -91.4231 246° West 401 461 34,000  Level Houston Center
23:15 31.6378 -91.5417 245° Southwest 402 463 34,000  Level Houston Center
23:16 31.5919 -91.6597 246° West 398 458 34,000  Level Houston Center
23:17 31.5447 -91.7781 245° Southwest 399 459 34,000  Level Houston Center
23:18 31.4989 -91.8947 245° Southwest 395 455 34,000  Level Houston Center
23:19 31.4517 -92.0122 245° Southwest 398 458 34,000  Level Houston Center
23:20 31.3983 -92.1431 244° Southwest 397 457 34,000  Level Houston Center
23:21 31.3517 -92.2592 245° Southwest 396 456 34,000  Level Houston Center
23:22 31.3056 -92.3778 246° West 401 461 34,000 -60 Level Houston Center
23:24 31.1981 -92.6067 241° Southwest 402 463 33,900  Descending Houston Center
23:25 31.1375 -92.7161 237° Southwest 402 463 34,000  Climbing Houston Center
23:26 31.0769 -92.8247 237° Southwest 400 460 34,000  Level Houston Center
23:27 31.0175 -92.9328 237° Southwest 398 458 34,000  Level Houston Center
23:28 30.9583 -93.0403 237° Southwest 396 456 34,000  Level Houston Center
23:29 30.8989 -93.1478 237° Southwest 396 456 34,000 -60 Level Houston Center
23:30 30.8378 -93.2561 237° Southwest 400 460 33,900  Descending Houston Center
23:31 30.7756 -93.3631 236° Southwest 402 463 34,000 -180 Climbing Houston Center
23:32 30.7122 -93.4711 236° Southwest 406 467 33,600 -1,920 Descending Houston Center
23:33 30.6364 -93.6014 236° Southwest 409 471 30,200 -3,660 Descending Houston Center
23:34 30.5703 -93.7183 237° Southwest 431 496 26,300 -3,060 Descending Houston Center
23:35 30.5047 -93.8339 237° Southwest 436 502 24,000 -2,400 Descending Houston Center
23:36 30.4431 -93.9450 237° Southwest 417 480 21,500 -2,760 Descending Houston Center
23:37 30.3808 -94.0531 236° Southwest 407 468 18,500 -3,000 Descending Houston Center
23:38 30.3225 -94.1567 237° Southwest 399 459 15,700 -2,760 Descending Houston Center
23:39 30.2597 -94.2644 236° Southwest 385 443 13,200 -1,860 Descending Houston Center
23:40 30.2003 -94.3642 235° Southwest 338 389 12,000 -1,020 Descending Houston Center
23:41 30.1775 -94.4514 253° West 308 354 11,100 -1,260 Descending Houston Center
23:42 30.1569 -94.5417 255° West 288 331 9,600 -1,980 Descending Houston Center
23:43 30.1236 -94.6328 247° West 285 328 7,400 -2,040 Descending Houston Center
23:44 30.0894 -94.7144 244° Southwest 275 316 5,300 -1,680 Descending Houston Center
23:45 30.0594 -94.7933 246° West 269 310 4,000 -660 Descending Houston Center
23:46 30.0286 -94.8672 244° Southwest 261 300 4,000  Level Houston Center
23:47 29.9978 -94.9411 244° Southwest 253 291 4,000  Level Houston Center
23:48 29.9761 -95.0233 253° West 255 293 4,000 -240 Level Houston Center
23:49 29.9781 -95.0953 272° West 238 274 3,600 -360 Descending Houston Center